Weather History for KMVE - January, 2013

Change the Weather History Date:

Saturday, January 19, 2013

  Actual Average Record
Temperature  
Mean Temperature 20 °F -  
Max Temperature 39 °F 22 °F 48 °F (2015)
Min Temperature 0 °F 3 °F -37 °F (1970)
Degree Days  
Heating Degree Days 46    
Moisture  
Dew Point 17 °F    
Average Humidity 81    
Maximum Humidity 93    
Minimum Humidity 62    
Precipitation  
Precipitation 0.00 in - - ()
Sea Level Pressure  
Sea Level Pressure 29.95 in    
Wind  
Wind Speed 12 mph (NW)    
Max Wind Speed 34 mph    
Max Gust Speed 54 mph    
Visibility 9 miles    
Events Snow    
Averages and records for this station are not official NWS values.
T = Trace of Precipitation, MM = Missing Value Source: NWS Daily Summary

Daily Weather History Graph

Daily Weather History Graph

Search for Another Location

Airport or City:

Trip Planner

Search our weather history database for the weather conditions in past years. The results will help you decide how hot, cold, wet, or windy it might be!

Date:

Astronomy

Jan. 19, 2013 Rise Set
Actual Time 7:54 AM CST 5:13 PM CST
Civil Twilight 7:22 AM CST 5:45 PM CST
Nautical Twilight 6:46 AM CST 6:21 PM CST
Astronomical Twilight 6:11 AM CST 6:56 PM CST
Moon 11:42 AM CST (1/19) 1:26 AM CST (1/19)
Length of Visible Light 10h 23m
Length of Day
9h 18m
First Quarter, 57% of the Moon is Illuminated
Jan 19
First Quarter
Jan 26
Full
Feb 3
Last Quarter
Feb 10
New
Feb 17
First Quarter

Hourly Weather History & Observations

Time (CST) Temp. Windchill Dew Point Humidity Pressure Visibility Wind Dir Wind Speed Gust Speed Precip Events Conditions
12:14 AM 30.2 °F 25.4 °F 28.4 °F 93% 29.74 in 10.0 mi SW 4.6 mph - N/A   Clear
12:34 AM 30.2 °F 25.4 °F 28.4 °F 93% 29.73 in 10.0 mi SW 4.6 mph - N/A   Clear
12:55 AM 30.2 °F 25.4 °F 28.4 °F 93% 29.73 in 10.0 mi SW 4.6 mph - N/A   Clear
1:14 AM 30.2 °F 23.4 °F 28.4 °F 93% 29.73 in 10.0 mi WSW 6.9 mph - N/A   Clear
1:34 AM 32.0 °F 26.4 °F 28.4 °F 87% 29.73 in 10.0 mi SW 5.8 mph - N/A   Clear
1:55 AM 30.2 °F 23.4 °F 28.4 °F 93% 29.73 in 10.0 mi SW 6.9 mph - N/A   Scattered Clouds
2:14 AM 32.0 °F 26.4 °F 28.4 °F 87% 29.73 in 10.0 mi WSW 5.8 mph - N/A   Scattered Clouds
2:34 AM 32.0 °F 25.6 °F 28.4 °F 87% 29.72 in 10.0 mi SW 6.9 mph - N/A   Clear
2:54 AM 32.0 °F 26.4 °F 28.4 °F 87% 29.71 in 10.0 mi WSW 5.8 mph - N/A   Clear
3:14 AM 30.2 °F 24.3 °F 28.4 °F 93% 29.71 in 10.0 mi WSW 5.8 mph - N/A   Mostly Cloudy
3:34 AM 33.8 °F 28.6 °F 28.4 °F 81% 29.72 in 10.0 mi West 5.8 mph - N/A   Scattered Clouds
3:54 AM 32.0 °F 25.6 °F 28.4 °F 87% 29.72 in 10.0 mi WNW 6.9 mph - N/A   Clear
4:14 AM 32.0 °F 25.6 °F 28.4 °F 87% 29.71 in 10.0 mi WNW 6.9 mph - N/A   Clear
4:34 AM 30.2 °F 24.3 °F 28.4 °F 93% 29.71 in 10.0 mi West 5.8 mph - N/A   Clear
4:54 AM 30.2 °F 25.4 °F 26.6 °F 86% 29.72 in 10.0 mi NW 4.6 mph - N/A   Clear
5:14 AM 30.2 °F 23.4 °F 26.6 °F 86% 29.72 in 10.0 mi NW 6.9 mph - N/A   Clear
5:34 AM 30.2 °F 25.4 °F 26.6 °F 86% 29.72 in 10.0 mi WNW 4.6 mph - N/A   Clear
5:54 AM 32.0 °F 26.4 °F 26.6 °F 80% 29.71 in 10.0 mi West 5.8 mph - N/A   Clear
6:14 AM 32.0 °F 24.8 °F 26.6 °F 80% 29.72 in 10.0 mi West 8.1 mph - N/A   Scattered Clouds
6:34 AM 32.0 °F 26.4 °F 26.6 °F 80% 29.73 in 10.0 mi WNW 5.8 mph - N/A   Overcast
6:54 AM 32.0 °F 24.8 °F 28.4 °F 87% 29.75 in 10.0 mi WNW 8.1 mph - N/A   Overcast
7:14 AM 32.0 °F 27.5 °F 28.4 °F 87% 29.75 in 10.0 mi NW 4.6 mph - N/A   Overcast
7:34 AM 33.8 °F 27.7 °F 28.4 °F 81% 29.76 in 10.0 mi NW 6.9 mph - N/A   Overcast
7:54 AM 33.8 °F - 28.4 °F 81% 29.77 in 10.0 mi Calm Calm - N/A   Mostly Cloudy
8:14 AM 33.8 °F 27.7 °F 28.4 °F 81% 29.77 in 10.0 mi West 6.9 mph - N/A   Scattered Clouds
8:34 AM 33.8 °F 26.4 °F 28.4 °F 81% 29.78 in 10.0 mi WNW 9.2 mph - N/A   Scattered Clouds
8:54 AM 35.6 °F 29.2 °F 28.4 °F 75% 29.78 in 10.0 mi NW 8.1 mph - N/A   Overcast
9:14 AM 32.0 °F 24.8 °F - N/A% 29.79 in 10.0 mi NW 8.1 mph - N/A   Mostly Cloudy
9:34 AM 35.6 °F 28.0 °F 30.2 °F 81% 29.82 in 10.0 mi NW 10.4 mph - N/A   Mostly Cloudy
9:54 AM 35.6 °F 28.6 °F 30.2 °F 81% 29.82 in 10.0 mi NW 9.2 mph - N/A   Mostly Cloudy
10:14 AM 37.4 °F 29.3 °F 30.2 °F 75% 29.83 in 10.0 mi NNW 12.7 mph 17.3 mph N/A   Scattered Clouds
10:34 AM 37.4 °F 28.9 °F 30.2 °F 75% 29.83 in 10.0 mi NNW 13.8 mph 20.7 mph N/A   Clear
10:54 AM 39.2 °F 29.3 °F 32.0 °F 75% 29.83 in 10.0 mi North 20.7 mph 26.5 mph N/A   Scattered Clouds
11:14 AM 37.4 °F 26.6 °F 30.2 °F 75% 29.84 in 10.0 mi North 21.9 mph 29.9 mph N/A   Mostly Cloudy
11:34 AM 37.4 °F 28.9 °F 32.0 °F 81% 29.84 in 10.0 mi NNW 13.8 mph 19.6 mph N/A   Mostly Cloudy
11:54 AM 37.4 °F 26.9 °F 30.2 °F 75% 29.84 in 10.0 mi North 20.7 mph 29.9 mph N/A   Mostly Cloudy
12:15 PM 37.4 °F 26.4 °F 30.2 °F 75% 29.85 in 10.0 mi NNW 23.0 mph 29.9 mph N/A   Mostly Cloudy
12:34 PM 35.6 °F 21.9 °F 28.4 °F 75% 29.87 in 10.0 mi North 33.4 mph 40.3 mph N/A   Overcast
12:55 PM 26.6 °F 9.8 °F 23.0 °F 86% 29.90 in 10.0 mi North 32.2 mph 41.4 mph N/A   Overcast
1:34 PM 23.0 °F 5.1 °F 19.4 °F 86% 29.94 in 10.0 mi North 31.1 mph 39.1 mph N/A   Overcast
1:54 PM 21.2 °F 4.9 °F 17.6 °F 86% 29.96 in 10.0 mi North 23.0 mph 35.7 mph N/A   Overcast
2:14 PM 21.2 °F 3.5 °F 17.6 °F 86% 29.97 in 4.0 mi North 27.6 mph 35.7 mph N/A Snow Light Snow
2:34 PM 19.4 °F 0.2 °F 12.2 °F 74% 29.99 in 10.0 mi North 31.1 mph 40.3 mph N/A   Mostly Cloudy
2:54 PM 19.4 °F -0.3 °F 10.4 °F 68% 30.01 in 10.0 mi North 33.4 mph 46.0 mph N/A   Clear
3:14 PM 17.6 °F -2.2 °F 8.6 °F 68% 30.02 in 10.0 mi NNW 31.1 mph 41.4 mph N/A   Scattered Clouds
3:34 PM 15.8 °F -5.5 °F 5.0 °F 62% 30.04 in 10.0 mi North 34.5 mph 54.1 mph N/A   Clear
3:54 PM 15.8 °F -5.0 °F 5.0 °F 62% 30.06 in 10.0 mi North 32.2 mph 46.0 mph N/A   Clear
4:14 PM 14.0 °F -6.2 °F 5.0 °F 67% 30.08 in 10.0 mi North 27.6 mph 40.3 mph N/A   Clear
4:34 PM 12.2 °F -7.9 °F 3.2 °F 67% 30.11 in 10.0 mi North 25.3 mph 40.3 mph N/A   Scattered Clouds
4:54 PM 10.4 °F -10.7 °F 3.2 °F 73% 30.13 in 10.0 mi North 26.5 mph 34.5 mph N/A   Clear
5:14 PM 10.4 °F -11.7 °F 3.2 °F 73% 30.14 in 10.0 mi North 29.9 mph 38.0 mph N/A   Scattered Clouds
5:34 PM 8.6 °F -13.8 °F 1.4 °F 73% 30.16 in 10.0 mi North 28.8 mph 41.4 mph N/A   Scattered Clouds
5:54 PM 8.6 °F -13.1 °F 1.4 °F 73% 30.18 in 10.0 mi North 26.5 mph 34.5 mph N/A   Unknown
6:14 PM 8.6 °F -10.5 °F 1.4 °F 73% 30.20 in 10.0 mi North 19.6 mph 36.8 mph N/A   Scattered Clouds
6:34 PM 6.8 °F -12.4 °F 3.2 °F 85% 30.22 in 5.0 mi North 18.4 mph 32.2 mph N/A   Mostly Cloudy
6:54 PM 6.8 °F -14.7 °F 3.2 °F 85% 30.23 in 1.8 mi North 24.2 mph 29.9 mph N/A Snow Light Snow
7:14 PM 6.8 °F -13.8 °F 1.4 °F 79% 30.24 in 2.5 mi North 21.9 mph 32.2 mph N/A   Overcast
7:34 PM 5.0 °F -17.1 °F -0.4 °F 78% 30.25 in 10.0 mi North 24.2 mph 31.1 mph N/A   Mostly Cloudy
7:54 PM 5.0 °F -16.2 °F -0.4 °F 78% 30.27 in 10.0 mi North 21.9 mph 29.9 mph N/A   Scattered Clouds
8:14 PM 3.2 °F -19.0 °F -2.2 °F 78% 30.28 in 10.0 mi North 23.0 mph 31.1 mph N/A   Mostly Cloudy
8:34 PM 3.2 °F -17.1 °F -0.4 °F 85% 30.29 in 7.0 mi North 18.4 mph 25.3 mph N/A   Overcast
8:54 PM 3.2 °F -17.6 °F -2.2 °F 78% 30.30 in 7.0 mi North 19.6 mph 26.5 mph N/A   Overcast
9:14 PM 3.2 °F -15.9 °F -2.2 °F 78% 30.30 in 10.0 mi North 16.1 mph 21.9 mph N/A   Mostly Cloudy
9:34 PM 1.4 °F -16.1 °F -0.4 °F 92% 30.30 in 5.0 mi North 12.7 mph 18.4 mph N/A   Overcast
9:54 PM 1.4 °F -16.1 °F -2.2 °F 85% 30.30 in 10.0 mi North 12.7 mph 23.0 mph N/A   Overcast
10:14 PM 1.4 °F -19.4 °F -2.2 °F 85% 30.30 in 10.0 mi North 18.4 mph - N/A   Overcast
10:34 PM 1.4 °F -17.6 °F -2.2 °F 85% 30.32 in 5.0 mi North 15.0 mph 23.0 mph N/A   Overcast
10:54 PM 1.4 °F -18.2 °F -4.0 °F 78% 30.32 in 10.0 mi North 16.1 mph 25.3 mph N/A   Scattered Clouds
11:14 PM 1.4 °F -18.8 °F -4.0 °F 78% 30.33 in 10.0 mi North 17.3 mph 21.9 mph N/A   Scattered Clouds
11:34 PM -0.4 °F -20.5 °F -5.8 °F 78% 30.32 in 10.0 mi North 16.1 mph 20.7 mph N/A   Scattered Clouds
11:54 PM -0.4 °F -19.2 °F -5.8 °F 78% 30.32 in 10.0 mi North 13.8 mph 19.6 mph N/A   Scattered Clouds